sat.trackr.live / text

‹ back to catalog

BEIDOU-3 M28 (C50)

NORAD 58654 · 2023-207A

PAYLOAD ACTIVE UNKNOWN

§ Identity

Operator
Country
PRC
Launch date
2023-12-26
Launch site
XICLF
Launch vehicle
Mass (kg)
RCS (m²)

Purposes: nav

External: N2YO · Heavens-Above · Gunter

§ Orbital elements

Epoch: 2026-09-16T01:04:58.519200Z

Period
773.24 min
Inclination
55.8384°
Eccentricity
0.0000622
Mean motion
1.86229765 rev/d
Perigee alt
21,526.4 km
Apogee alt
21,529.9 km
Semi-major
27,906.3 km
B*
0.0000e+0
RAAN
59.2430°
Arg perigee
45.6359°
Mean anomaly
314.3812°
Rev number
1,853

§ Raw data

BEIDOU-3 M28 (C50)1 58654U 23207A   26259.04512175 -.00000044  00000+0  00000+0 0  99982 58654  55.8384  59.2430 0000622  45.6359 314.3812  1.86229765 18533

JSON: /api/v1/satellites/58654 · /tle

For live sub-satellite position, see the globe view (requires WebGL).

§ Visibility from observer

Set your observer location to see the next 7 days of passes ≥ 10°. The values pass through the URL so the page stays shareable.

No JS? Fill the form by hand. The geolocation button needs JavaScript.